Regional Weather Roundup
Issued by NWS

Home | Current Version | Previous Version | Graphics & Text | Print | Product List | Glossary On
Versions: 1 2 3 4 5 6 7 8 9 10 11 12 13 14 15 16 17 18 19 20 21 22 23 24 25 26 27 28 29 30 31 32 33 34 35 36 37 38 39 40 41 42 43 44 45 46 47 48 49 50
162
ASUS45 KSLC 132110
RWRUT

UTAH REGIONAL WEATHER ROUNDUP
NATIONAL WEATHER SERVICE SALT LAKE CITY UT
200 PM MST SAT FEB 13 2016

UTZ001>011-023>025-132200-

NORTHERN UTAH

CITY           SKY/WX    TMP DP  RH WIND       PRES   REMARKS
BRIGHAM CITY   CLOUDY    31  26  81 CALM      30.34F
HILL AFB       MOSUNNY   32  32 100 W5        30.30F FOG     WCI  27
LOGAN          MOSUNNY   27  25  92 CALM      30.30F FOG
OGDEN          CLOUDY    30  28  92 CALM      30.31F FOG
PROVO AIRPORT  FOG       27  25  93 CALM      30.31F VSB 1/2
SALT LAKE CITY CLOUDY    31  28  89 NW5       30.33F FOG     WCI  26
VERNAL         CLOUDY    33  23  66 NE3       30.20F HAZE
WENDOVER       CLOUDY    34  27  75 SE8       30.31F WCI  27
HEBER CITY     PTSUNNY   39  21  48 CALM      30.22F
WEST JORDAN    PTSUNNY   32  30  93 N6        30.32F WCI  26

$$

UTZ012>022-026-027-132200-

SOUTHERN/CENTRAL UTAH

CITY           SKY/WX    TMP DP  RH WIND       PRES   REMARKS
BLANDING       SUNNY     47  26  43 CALM      30.27F
BRYCE CANYON   SUNNY     49  15  25 NW16      30.27F
CEDAR CITY     MOSUNNY   49  28  44 NE9       30.22F
DELTA          PTSUNNY   25  24  96 SW6       30.30F WCI  18
HANKSVILLE     SUNNY     50  32  50 CALM      30.24F
MILFORD        PTSUNNY   27  21  78 N14       30.27F WCI  16
MOAB/CYNLANDS  MOSUNNY   45  33  63 NW8       30.21F
PRICE          SUNNY     44  28  53 S5        30.21F
ST GEORGE      MOCLDY    59  28  31 CALM      30.16F
KANAB          SUNNY     66  25  20 SW7       30.19F

$$

REGIONAL REPORTS     COLORADO/ARIZONA

CITY           SKY/WX    TMP DP  RH WIND       PRES   REMARKS
CRAIG, CO      CLOUDY    31  23  72 W3        30.19F
GRAND JUNCTION CLOUDY    43  31  62 NW8       30.20F
RIFLE          CLOUDY    40  21  46 CALM      30.20F
MONTROSE       CLOUDY    46  29  51 N7        30.21F
CORTEZ         SUNNY     57  27  31 CALM      30.19F
PAGE, AZ       SUNNY     56  32  40 CALM      30.18F
GRAND CANYON   SUNNY     64   3   9 W9        30.24F
KINGMAN        SUNNY     72  17  12 N7        30.13F
FLAGSTAFF      SUNNY     61  11  14 NW9       30.25F

$$

REGIONAL REPORTS    NEVADA/IDAHO/WYOMING

CITY           SKY/WX    TMP DP  RH WIND       PRES   REMARKS
LAS VEGAS, NV  PTSUNNY   71  22  15 CALM      30.08F
ELY            SUNNY     45  24  43 CALM      30.30F
ELKO           SUNNY     38  24  57 CALM      30.31F
POCATELLO, ID  MOSUNNY   44  31  60 W31G40    30.21F
BURLEY         LGT RAIN  46  33  60 W13G24    30.24F
EVANSTON, WY   SUNNY     41  23  48 SW14G26   30.22F
ROCK SPRINGS   SUNNY     43  23  45 W25G32    30.13F
KEMMERER       SUNNY     39  27  60 W25G31    30.15F WCI  28

$$




USA.gov is the U.S. government's official web portal to all federal, state and local government web resources and services.